sat.trackr.live / text

‹ back to catalog

HULIANWANG DIGUI-152

NORAD 67528 · 2026-013G

PAYLOAD ACTIVE UNKNOWN

§ Identity

Operator
Country
PRC
Launch date
2026-01-19
Launch site
WSC
Launch vehicle
Mass (kg)
RCS (m²)

External: N2YO · Heavens-Above · Gunter

§ Orbital elements

Epoch: 2026-05-25T04:18:00.401184Z

Period
108.33 min
Inclination
50.0042°
Eccentricity
0.0000919
Mean motion
13.29327965 rev/d
Perigee alt
1,148.6 km
Apogee alt
1,150.0 km
Semi-major
7,527.4 km
B*
1.0522e-4
RAAN
77.9218°
Arg perigee
27.0331°
Mean anomaly
333.0589°
Rev number
1,699

§ Raw data

HULIANWANG DIGUI-1521 67528U 26013G   26145.17917131 -.00000075  00000+0  10522-3 0  99932 67528  50.0042  77.9218 0000919  27.0331 333.0589 13.29327965 16993

JSON: /api/v1/satellites/67528 · /tle

For live sub-satellite position, see the globe view (requires WebGL).

§ Visibility from observer

Set your observer location to see the next 7 days of passes ≥ 10°. The values pass through the URL so the page stays shareable.

No JS? Fill the form by hand. The geolocation button needs JavaScript.